Powrót do katalogu

ORBCOMM FM 14

AktywnyŁącznośćLEO
NORAD 25419·PAYLOAD·🇺🇸 United States

Wystrzelony Aug 2, 1998 z Cape Canaveral Space Force Station

Loading…

Następne Przeloty (najbliższe 24 godziny)

TLE

ŚwieżeSource: Space-Track

Epoka: Sep 14, 2026, 03:26 UTC

1 25419U 98046G   26257.14322735  .00000830  00000-0  30424-3 0  9994
2 25419  44.9946 177.8244 0003805  26.3499 333.7543 14.40287559469632

Śledź ORBCOMM FM 14 w czasie rzeczywistym z AllMySat

Download on the App Store